Location: Unspecified
(43.4680°N, 87.1740°E)
Time: 13:37:59
(UTC+00:00)

ALOS - Pass Details

Date: 17 January 2020
Orbit: 683 x 686 km, 97.8° (Epoch: 27 February)

Event Time Altitude Azimuth Distance (km) Brightness Sun altitude
Rises 23:33:09 0° 12° (NNE) 3,060 5.7 -22.6°
Reaches altitude 10° 23:35:24 10° 12° (NNE) 2,139 4.9 -22.2°
Maximum altitude 23:40:05 87° 289° (WNW) 691 2.1 -21.4°
Drops below altitude 10° 23:44:45 10° 195° (SSW) 2,121 4.7 -20.6°
Sets 23:46:58 0° 195° (SSW) 3,032 5.5 -20.2°
